TimeEDT,TemperatureF,Dew PointF,Humidity,Sea Level PressureIn,VisibilityMPH,Wind Direction,Wind SpeedMPH,Gust SpeedMPH,PrecipitationIn,Events,Conditions,WindDirDegrees,DateUTC
12:37 AM,78.8,75.2,89,30.14,7.0,NNE,5.8,-,N/A,,Overcast,30,2012-10-05 04:37:00
12:53 AM,78.1,75.9,93,30.12,7.0,North,8.1,-,N/A,,Overcast,10,2012-10-05 04:53:00
1:53 AM,78.1,75.9,93,30.14,7.0,Calm,Calm,-,0.00,,Overcast,0,2012-10-05 05:53:00
2:53 AM,78.1,75.9,93,30.13,10.0,Calm,Calm,-,0.01,Rain,Light Rain,0,2012-10-05 06:53:00
3:53 AM,77.0,75.9,96,30.11,8.0,NNW,3.5,-,0.00,,Mostly Cloudy,330,2012-10-05 07:53:00
4:53 AM,78.1,75.9,93,30.09,9.0,Calm,Calm,-,N/A,,Mostly Cloudy,0,2012-10-05 08:53:00
5:53 AM,75.9,75.0,97,30.11,7.0,NW,5.8,-,N/A,,Mostly Cloudy,320,2012-10-05 09:53:00
6:53 AM,75.9,75.0,97,30.11,4.0,Calm,Calm,-,N/A,,Overcast,0,2012-10-05 10:53:00
7:06 AM,75.2,75.2,100,30.12,2.5,Calm,Calm,-,N/A,,Overcast,0,2012-10-05 11:06:00
7:22 AM,77.0,75.2,94,30.11,2.5,NE,3.5,-,N/A,,Mostly Cloudy,40,2012-10-05 11:22:00
7:53 AM,77.0,75.9,96,30.10,2.5,NNW,3.5,-,N/A,,Mostly Cloudy,340,2012-10-05 11:53:00
8:28 AM,77.0,75.2,94,30.12,1.8,North,5.8,-,N/A,,Mostly Cloudy,360,2012-10-05 12:28:00
8:53 AM,77.0,75.9,96,30.10,3.0,North,6.9,-,N/A,,Mostly Cloudy,350,2012-10-05 12:53:00
9:53 AM,81.0,75.9,85,30.11,7.0,North,6.9,-,N/A,,Mostly Cloudy,350,2012-10-05 13:53:00
10:53 AM,84.0,75.0,74,30.10,10.0,North,6.9,-,N/A,,Mostly Cloudy,10,2012-10-05 14:53:00
11:53 AM,86.0,75.0,70,30.10,10.0,North,8.1,-,N/A,,Mostly Cloudy,360,2012-10-05 15:53:00
12:53 PM,88.0,73.0,61,30.08,10.0,NNE,10.4,-,N/A,,Mostly Cloudy,30,2012-10-05 16:53:00
1:10 PM,87.8,73.4,62,30.09,10.0,NE,11.5,-,N/A,Thunderstorm,Thunderstorm,40,2012-10-05 17:10:00
1:53 PM,84.0,75.0,74,30.06,7.0,East,10.4,-,N/A,Thunderstorm,Thunderstorm,80,2012-10-05 17:53:00
2:01 PM,82.4,75.2,79,30.06,7.0,East,11.5,-,0.00,Rain-Thunderstorm,Light Thunderstorms and Rain,90,2012-10-05 18:01:00
2:34 PM,82.4,75.2,79,30.06,8.0,East,6.9,-,0.00,Thunderstorm,Thunderstorm,90,2012-10-05 18:34:00
2:49 PM,80.6,77.0,89,30.06,8.0,SE,11.5,-,0.00,Rain-Thunderstorm,Light Thunderstorms and Rain,130,2012-10-05 18:49:00
2:53 PM,81.0,77.0,88,30.05,8.0,ESE,9.2,-,0.00,Rain-Thunderstorm,Light Thunderstorms and Rain,120,2012-10-05 18:53:00
3:53 PM,82.9,75.0,77,30.01,8.0,East,10.4,-,0.00,Thunderstorm,Thunderstorm,90,2012-10-05 19:53:00
4:12 PM,82.4,73.4,74,30.03,10.0,NE,9.2,-,N/A,,Mostly Cloudy,50,2012-10-05 20:12:00
4:53 PM,84.0,75.0,74,30.02,10.0,NNE,11.5,-,N/A,,Mostly Cloudy,30,2012-10-05 20:53:00
5:53 PM,82.0,73.9,76,30.00,10.0,ENE,8.1,-,N/A,,Overcast,60,2012-10-05 21:53:00
6:11 PM,82.4,73.4,74,30.03,10.0,East,4.6,-,N/A,,Overcast,80,2012-10-05 22:11:00
6:53 PM,82.0,73.9,76,30.01,10.0,East,11.5,-,0.00,,Overcast,90,2012-10-05 22:53:00
7:53 PM,80.1,73.9,81,30.03,10.0,East,4.6,-,0.00,,Overcast,100,2012-10-05 23:53:00
8:53 PM,80.1,73.9,81,30.03,10.0,East,4.6,-,N/A,,Overcast,90,2012-10-06 00:53:00
9:53 PM,80.1,73.9,81,30.02,10.0,ENE,5.8,-,N/A,,Overcast,70,2012-10-06 01:53:00
10:53 PM,80.1,73.9,81,30.03,10.0,Calm,Calm,-,N/A,,Overcast,0,2012-10-06 02:53:00
11:53 PM,79.0,73.9,84,30.03,10.0,Calm,Calm,-,N/A,,Overcast,0,2012-10-06 03:53:00